Theta_e
333 331 330 329 328 327 327 327 328 329 330 331 332 332 332 330 327 328 330 329 327 327 328 328 329 328 327 327 326 326 326 327 327 326 324 323 323 322 320 321 322 319 318 321 317 315 316 314 320 329 332 332 332 333 332 332 332 331 331 329 327 327
333 331 330 329 329 328 327 328 329 330 331 332 332 332 330 328 327 329 330 328 327 328 327 327 328 327 326 327 325 324 325 324 324 323 321 321 320 319 318 318 320 320 317 320 319 316 319 319 323 330 333 333 333 332 331 332 331 331 331 329 328 325
333 331 330 330 330 329 329 329 330 332 332 332 332 331 328 327 328 329 329 328 328 328 327 327 329 328 327 327 327 325 324 324 323 322 320 320 320 318 318 317 319 321 318 319 320 318 322 323 324 329 331 330 332 332 331 332 332 331 331 329 327 321
333 332 331 331 331 330 330 330 332 332 332 332 331 329 327 327 329 329 329 329 329 329 328 327 329 329 328 328 328 326 324 324 322 321 320 320 319 319 318 317 319 320 318 319 321 321 323 324 325 326 326 326 331 332 331 332 331 331 330 329 326 321
333 333 332 332 332 330 331 332 333 332 331 331 329 327 326 328 329 329 329 330 330 330 329 326 326 327 327 328 328 326 324 324 322 321 321 321 320 318 318 319 323 322 321 324 326 327 326 325 325 324 325 327 331 332 331 331 331 330 329 328 327 324
334 334 334 334 333 331 332 333 332 331 331 330 327 326 327 329 330 330 331 331 330 329 328 325 324 325 327 328 328 327 325 325 325 323 324 326 324 321 321 323 327 328 327 329 330 330 330 328 326 326 328 331 332 332 331 330 330 331 330 329 328 324
335 335 336 336 333 332 333 332 331 331 330 327 326 326 327 329 331 332 332 331 330 329 327 325 325 326 327 327 328 327 326 327 328 326 326 328 328 326 326 326 329 330 330 330 330 330 331 330 329 330 332 332 333 332 332 331 331 331 330 329 327 324
335 334 336 336 333 332 333 332 330 330 329 327 328 328 328 331 332 332 331 330 329 329 326 326 327 327 327 328 328 328 328 327 328 328 327 327 328 329 329 329 330 331 331 330 331 330 330 331 331 332 332 332 333 332 331 331 331 331 330 328 326 323
335 335 336 336 333 333 333 333 331 330 328 327 329 329 330 332 332 331 331 329 329 329 326 326 327 327 327 328 329 328 327 327 327 327 327 326 327 328 329 330 330 331 331 330 330 329 330 331 332 333 332 331 332 332 330 331 331 330 329 328 326 324
336 336 335 336 335 334 333 333 332 330 328 328 329 329 330 330 330 330 329 329 329 329 327 326 327 327 326 327 329 327 327 327 327 327 327 327 328 329 329 329 330 330 330 330 329 329 330 331 331 332 332 331 331 331 330 330 331 330 329 328 327 324
337 336 336 336 335 334 333 333 332 330 329 330 329 328 329 329 329 328 328 328 328 327 327 326 327 327 327 328 328 327 327 328 329 328 327 328 329 329 329 329 329 330 329 329 328 328 329 330 331 331 331 331 331 330 330 330 330 330 329 329 327 326
336 336 336 335 334 334 332 331 330 328 329 330 328 327 328 327 325 325 327 328 328 327 325 325 327 327 329 328 326 326 327 327 328 328 328 329 329 328 329 329 329 329 328 328 327 327 329 330 330 331 331 331 331 330 330 330 329 330 330 329 328 327
337 335 335 334 333 331 329 329 329 327 328 328 326 326 327 326 324 325 327 329 328 326 324 324 324 326 329 328 325 327 326 325 326 328 328 329 328 327 328 328 329 328 328 327 326 327 329 330 330 331 330 330 329 329 330 330 329 330 329 329 329 329
336 335 335 332 330 329 328 328 328 328 328 325 325 327 328 328 327 327 328 329 327 325 324 324 324 325 327 327 326 326 326 326 326 327 327 328 327 328 328 328 329 327 327 327 326 328 329 329 330 330 330 329 328 329 329 329 329 329 328 328 329 329
335 335 333 330 329 328 328 328 329 328 326 326 328 329 329 328 327 326 328 328 327 325 324 324 325 326 326 326 326 325 326 327 327 327 325 326 327 328 328 327 328 327 327 327 326 328 329 329 329 329 329 329 328 328 329 328 328 328 327 328 330 329
333 332 331 328 327 327 327 327 326 327 328 330 330 328 327 326 324 325 326 327 327 327 326 326 326 327 327 327 326 325 326 328 328 327 325 326 328 328 328 327 328 328 326 327 326 327 328 329 329 329 329 329 328 328 328 328 327 328 328 328 330 328
330 330 329 328 328 327 327 326 325 328 330 330 328 326 325 324 324 325 326 327 328 327 328 328 327 328 328 327 326 326 327 328 328 328 327 328 328 328 328 328 328 328 326 326 326 326 328 329 329 329 329 329 328 328 327 328 328 328 329 329 329 327
329 329 328 328 328 327 327 327 328 329 328 327 326 326 326 326 326 326 326 326 327 327 328 328 328 328 328 327 327 327 327 329 329 328 328 328 328 327 327 328 329 327 326 326 325 324 326 329 329 327 328 329 328 328 327 328 328 328 329 329 328 326
328 328 327 327 327 326 326 327 327 327 326 326 326 327 328 328 329 328 327 327 328 329 328 328 328 329 328 328 329 328 328 329 329 328 326 327 328 326 325 327 329 327 326 327 326 325 327 329 328 326 327 328 328 328 328 327 328 328 328 328 327 327
329 327 326 326 326 325 324 325 326 326 326 327 327 328 329 328 329 329 329 329 330 330 328 327 328 329 330 329 329 329 329 329 328 328 326 327 327 325 326 327 329 329 327 327 328 328 329 329 328 327 327 327 327 328 328 327 328 328 328 326 326 327
328 326 325 326 325 323 324 325 325 326 325 327 328 328 329 328 328 329 330 330 330 328 327 327 327 328 329 328 328 328 328 328 327 326 325 326 326 326 328 327 327 328 327 327 329 329 329 329 328 327 328 327 328 328 327 328 328 327 326 325 324 325
326 326 325 325 324 325 326 326 325 325 325 327 329 329 329 327 326 328 329 329 328 327 327 326 326 327 328 327 327 327 328 327 326 325 325 326 325 326 328 328 327 326 326 328 330 328 329 329 328 328 327 327 328 328 328 328 327 326 325 324 323 322
325 325 324 324 325 326 326 324 325 325 325 328 329 329 327 324 325 328 328 328 328 328 328 327 327 327 327 327 327 327 327 327 326 325 325 325 325 326 326 327 326 325 326 328 329 327 329 329 328 328 327 327 328 328 328 328 327 326 325 325 324 323
323 324 323 324 325 325 325 325 326 326 326 326 328 328 324 321 323 326 328 328 328 327 327 328 328 327 327 327 327 327 327 326 325 324 325 325 325 325 325 326 326 326 326 326 326 326 328 328 328 328 327 327 327 327 327 327 326 325 324 324 324 323
322 322 323 324 324 323 325 325 325 327 327 326 327 325 322 321 324 324 324 327 328 328 327 327 328 327 328 328 326 326 327 326 325 325 325 325 325 325 325 325 325 325 326 325 326 327 327 328 328 328 327 327 327 327 326 325 325 324 324 323 323 323
321 321 322 323 321 322 324 322 322 327 326 325 324 322 321 324 327 326 323 323 324 325 325 325 326 325 326 328 327 327 327 326 326 326 326 324 324 325 326 325 324 326 326 327 328 328 327 327 327 326 326 326 325 326 325 324 323 323 323 322 322 322
320 321 322 322 319 322 324 319 319 322 320 319 319 321 325 326 327 327 324 320 320 322 322 321 320 319 319 323 325 325 325 325 325 324 326 325 323 324 325 324 325 325 326 327 328 328 327 326 325 325 326 326 325 325 325 324 323 322 322 322 321 321
321 321 321 321 320 322 321 314 313 317 319 321 320 322 326 326 327 326 322 321 323 324 322 320 319 319 317 318 320 323 323 324 324 324 324 325 324 324 324 325 325 325 325 325 326 327 326 325 324 325 326 326 325 325 325 324 323 322 321 321 321 321
322 321 321 320 320 319 314 311 315 320 324 327 325 323 324 325 324 321 320 324 325 325 323 321 321 323 321 320 321 323 324 324 324 324 323 324 325 325 325 326 327 327 325 325 325 327 327 326 325 325 325 326 324 324 325 324 323 322 321 321 320 320
322 321 322 320 317 313 312 315 320 324 326 327 324 319 317 319 317 316 321 325 325 325 323 320 322 324 323 322 320 321 324 325 324 324 324 324 324 325 326 326 327 328 327 325 324 325 326 326 326 325 325 325 323 323 325 324 323 322 321 320 318 315
322 321 321 319 315 314 317 321 322 324 324 320 316 313 311 311 310 311 319 324 324 322 321 320 320 323 324 322 319 319 322 325 324 324 325 325 323 324 325 325 326 326 327 327 325 324 325 325 325 326 326 325 323 323 324 324 323 322 321 318 314 312
322 320 320 319 318 319 323 325 323 322 320 314 311 311 309 308 308 308 314 319 319 318 321 321 320 321 322 320 318 319 321 323 324 325 325 323 321 322 324 325 325 324 324 325 324 323 323 325 325 325 325 325 323 323 324 323 322 322 320 318 315 312
321 320 320 321 321 322 323 324 322 318 315 312 312 312 311 312 312 312 314 316 317 319 321 321 319 318 319 318 319 321 321 321 322 323 323 321 320 322 324 323 323 322 322 322 323 323 324 325 324 324 323 323 323 321 321 322 321 322 321 318 316 313
320 321 322 322 323 324 323 323 320 317 314 313 313 313 315 318 317 316 318 319 321 322 321 321 320 319 320 321 320 320 320 319 320 321 322 322 322 324 323 321 321 320 320 321 322 324 324 324 323 322 322 321 321 318 317 319 320 321 320 318 316 314
320 322 323 323 325 325 323 322 320 318 316 315 315 315 317 320 319 318 319 321 323 323 322 323 322 320 322 323 321 320 319 318 319 321 322 323 324 325 324 322 322 321 322 323 323 323 322 321 319 320 320 319 318 316 315 317 319 319 320 318 316 314
320 321 323 325 326 325 321 320 321 319 316 315 315 316 316 317 317 316 319 322 323 323 323 324 322 319 321 323 322 320 317 316 320 322 323 323 323 323 323 323 322 322 323 324 323 322 320 317 316 316 317 317 317 316 315 316 318 317 317 317 315 313
322 324 326 326 325 323 320 320 322 321 319 316 316 317 317 315 314 315 318 321 322 323 323 323 322 318 318 319 319 317 317 318 320 322 322 323 322 322 321 321 321 322 323 323 323 322 318 316 315 315 315 316 315 314 314 315 316 315 314 314 313 313
Wind_Speed
27 27 26 26 25 25 24 22 21 20 19 17 17 16 15 15 14 13 12 12 12 11 10 10 10 9 8 7 5 4 4 4 5 5 5 4 3 3 3 3 3 3 4 6 6 7 10 14 17 18 17 17 14 11 9 4 2 2 5 5 6 8
27 26 26 26 25 25 23 22 21 20 18 17 16 16 15 15 14 14 13 12 12 10 10 9 7 7 7 6 5 4 4 3 4 4 5 5 4 3 3 4 4 4 5 7 7 8 11 15 18 20 19 17 14 10 8 3 2 4 5 5 6 8
27 27 27 26 25 24 24 23 21 19 18 18 17 15 15 15 15 14 13 12 10 10 10 8 6 5 5 4 3 3 3 3 3 4 4 5 4 4 4 4 5 5 6 7 8 10 12 15 18 19 17 15 11 8 6 2 3 4 4 4 6 7
27 27 27 26 25 24 24 22 20 19 18 17 16 15 16 16 15 13 12 11 10 10 9 7 5 4 3 2 2 3 3 3 3 4 4 4 4 4 4 4 6 6 7 9 11 11 12 14 15 15 13 11 9 7 6 4 3 4 4 4 5 7
27 27 26 25 25 25 24 22 20 18 18 17 17 16 16 15 14 12 11 10 10 10 8 5 4 3 2 2 2 2 3 4 4 5 5 5 5 5 6 7 9 10 11 12 12 12 11 12 11 11 10 10 9 7 6 5 4 4 5 5 5 6
26 26 25 24 25 26 24 21 19 18 17 17 17 17 16 14 13 12 11 10 9 9 7 4 3 3 2 2 3 2 3 5 5 5 6 7 6 6 8 10 13 14 14 13 11 9 9 10 9 9 8 9 9 7 6 6 5 4 4 5 6 5
25 26 24 23 25 26 22 19 18 19 19 18 18 18 15 13 13 12 10 9 8 6 4 3 3 2 2 3 3 3 2 4 5 5 5 6 7 7 9 11 12 13 14 12 11 8 6 7 8 8 8 9 10 10 8 7 6 4 3 3 4 4
25 27 24 23 26 24 21 18 19 20 21 20 18 17 15 13 12 10 8 7 6 4 3 2 3 3 3 3 3 2 1 2 4 4 4 5 6 7 8 10 11 11 12 11 10 8 6 8 12 12 11 11 12 11 10 9 7 6 4 3 3 3
26 27 24 22 22 21 19 18 19 20 20 18 15 13 13 13 11 9 7 5 5 4 3 3 2 3 3 4 3 2 2 2 2 3 4 3 4 6 8 10 10 9 10 9 10 10 6 11 14 13 12 12 13 12 10 10 8 6 4 2 1 1
24 24 21 18 18 19 18 17 19 19 17 16 14 12 11 10 10 8 6 5 4 3 2 2 2 3 4 4 3 2 3 3 3 4 4 4 3 5 6 9 9 7 9 10 12 12 10 13 12 11 11 10 12 11 10 11 8 6 5 3 2 2
22 22 20 19 19 18 16 14 16 18 16 15 15 14 11 9 8 7 6 6 5 3 2 2 2 3 4 3 3 3 3 3 5 5 5 5 4 4 5 8 9 7 7 9 11 10 10 11 9 10 11 9 10 11 10 10 8 7 6 4 3 4
20 20 20 21 20 17 14 11 12 15 15 14 14 13 11 8 7 6 6 6 6 4 3 3 2 3 4 4 3 3 3 3 5 6 5 6 5 4 5 6 8 7 6 8 9 7 9 10 8 9 10 8 9 10 10 9 8 7 4 2 4 5
17 17 19 19 17 15 13 12 12 14 15 14 12 12 11 8 7 7 6 6 6 4 3 2 2 3 4 4 4 4 4 2 3 5 6 6 5 4 5 6 8 6 5 8 7 5 9 10 8 9 8 7 8 9 10 8 7 6 3 2 3 5
15 16 15 14 16 15 15 15 14 14 14 14 13 12 11 8 7 7 6 7 6 4 4 3 2 3 4 5 5 5 4 3 3 4 6 6 6 4 4 5 6 6 7 8 6 6 8 9 9 8 8 7 8 9 8 7 5 5 3 3 4 6
14 15 14 14 16 17 16 16 15 14 14 14 13 11 10 8 7 7 6 6 5 4 4 4 4 5 5 6 7 6 5 5 4 4 6 6 6 4 3 3 3 6 9 8 7 8 7 9 9 8 7 7 8 9 9 7 6 4 2 3 4 7
16 17 17 16 17 18 16 15 16 14 13 12 11 10 10 8 6 6 6 5 5 5 5 5 5 6 7 8 8 7 5 6 5 4 6 6 7 6 4 3 5 8 10 9 9 10 8 8 8 7 7 7 7 8 8 6 5 3 3 4 6 8
19 20 20 17 17 18 16 15 16 13 11 10 9 8 7 5 4 4 5 6 6 6 6 6 6 7 8 8 9 7 5 5 5 6 6 7 8 7 6 6 7 9 10 10 11 11 10 8 7 8 9 8 8 8 7 6 4 3 3 4 6 7
20 20 19 18 17 16 15 15 14 12 11 10 8 7 5 3 2 2 4 5 5 6 5 5 6 7 9 8 8 8 6 5 6 7 7 8 9 9 9 7 8 9 10 10 12 12 11 10 10 11 11 9 9 8 7 6 4 3 3 3 5 6
21 20 19 18 16 15 15 14 13 12 11 10 10 9 7 5 4 2 2 2 3 4 3 3 4 6 7 7 7 8 8 6 6 8 8 8 10 10 10 8 8 10 10 10 12 12 12 13 12 11 11 10 10 8 6 5 4 2 3 4 4 5
20 20 19 18 16 16 16 16 15 14 13 14 13 12 9 8 7 5 3 2 2 3 3 3 4 6 6 6 6 7 8 7 7 9 9 9 10 10 9 8 9 11 11 10 12 12 13 14 12 12 11 10 10 9 7 6 4 3 4 4 3 3
20 18 16 16 16 16 17 18 18 17 16 15 13 11 9 7 6 5 5 4 3 3 3 3 5 6 6 5 7 8 7 6 6 8 10 9 10 11 9 9 10 11 11 11 13 13 13 12 12 13 12 11 10 9 7 7 6 6 6 5 4 3
20 18 15 15 16 17 19 19 19 18 16 16 14 11 8 5 5 5 6 6 5 4 4 4 4 5 4 4 6 8 6 6 7 8 9 9 10 12 11 10 12 12 12 12 12 13 13 11 12 13 12 11 10 8 8 8 8 9 9 7 5 5
20 18 17 17 18 19 20 19 18 16 16 16 15 11 7 7 7 7 7 7 6 5 4 4 4 4 3 4 5 7 6 6 8 7 8 9 10 12 12 12 12 12 13 13 12 12 13 12 11 11 11 11 10 9 9 7 6 8 9 6 3 6
20 19 19 20 19 19 20 18 17 16 15 15 14 8 5 8 8 6 7 7 6 5 5 5 4 4 5 6 5 5 5 6 8 7 8 9 9 11 12 12 12 12 13 13 13 12 13 13 10 11 12 11 10 10 9 8 8 8 8 6 4 5
19 20 21 20 18 19 18 16 16 17 15 12 10 6 6 9 7 6 7 6 5 5 6 7 7 7 7 7 6 5 5 6 8 6 7 8 9 10 12 12 12 11 11 12 12 12 13 14 12 11 12 11 10 8 9 12 13 9 7 8 8 9
20 22 22 20 18 18 16 14 14 16 13 11 10 9 10 9 8 7 6 6 5 5 5 6 7 8 9 9 8 8 7 7 7 6 7 9 8 9 11 11 11 10 10 12 12 12 13 14 14 13 13 11 8 7 13 18 15 11 10 10 10 11
21 23 22 21 20 17 15 13 12 12 11 12 13 13 12 10 9 6 6 6 5 5 5 4 6 7 8 9 9 9 9 8 6 5 7 8 8 8 10 10 9 10 11 12 12 11 11 14 15 13 13 12 7 6 14 20 18 16 16 13 11 12
23 24 23 23 21 17 15 14 12 12 12 14 14 14 13 11 9 7 7 9 7 5 5 4 5 5 6 8 8 9 9 7 6 5 6 7 7 8 8 8 9 9 10 11 10 10 10 12 14 14 14 12 8 7 13 19 19 18 20 19 15 13
24 25 24 23 21 18 17 16 15 14 14 14 12 12 12 10 9 9 10 11 8 6 4 5 7 6 5 6 7 9 7 5 5 7 8 7 8 9 9 9 9 8 9 8 8 9 9 10 12 14 14 13 10 10 14 18 18 16 17 18 14 11
25 24 23 22 21 20 19 17 16 15 14 13 11 10 10 9 10 12 12 12 11 7 4 5 7 6 5 4 6 9 9 6 5 7 9 7 9 11 10 9 9 9 8 7 7 8 8 9 10 12 14 14 13 15 18 19 19 16 14 13 12 11
25 24 23 21 21 21 20 17 16 16 14 12 10 10 10 9 10 12 13 12 11 8 5 6 7 7 5 2 3 9 10 9 7 9 11 8 7 10 11 9 10 11 9 8 8 8 9 9 9 12 14 13 13 16 18 19 20 18 15 14 16 16
26 24 22 21 21 21 20 19 17 16 14 12 11 10 10 11 10 11 12 11 9 7 6 6 7 8 7 4 4 7 8 9 9 10 11 9 6 9 12 10 11 11 10 10 9 9 9 8 9 11 13 12 11 13 14 15 19 19 15 15 18 19
26 24 23 22 23 22 21 19 17 16 15 13 11 11 11 11 10 10 10 9 8 5 5 5 5 6 6 7 8 7 6 7 9 9 8 7 7 10 10 9 10 10 10 10 10 10 10 11 13 15 15 13 13 12 10 12 18 18 16 16 18 19
26 25 24 24 24 23 21 19 16 15 15 13 12 11 11 10 9 8 8 8 8 5 5 5 3 6 8 10 10 9 7 6 7 8 6 6 9 10 8 9 9 9 10 12 13 14 16 16 16 16 15 14 14 13 10 10 15 18 19 20 19 18
27 27 26 25 25 23 20 18 15 15 15 13 12 12 12 10 8 8 9 9 8 6 7 7 4 6 10 9 9 8 6 6 8 10 11 10 10 10 10 11 11 12 14 16 18 19 19 17 16 15 14 14 15 14 12 13 15 16 18 21 18 15
28 28 26 25 25 22 19 16 14 15 15 14 13 11 11 10 8 9 10 10 8 8 9 8 5 5 9 9 9 7 5 8 13 13 12 12 12 11 12 12 13 15 17 17 19 20 19 16 16 16 16 16 15 15 14 14 15 15 16 19 17 14
27 28 26 25 23 19 16 15 14 14 14 13 12 9 8 8 7 8 9 8 8 9 8 7 5 5 8 9 8 8 7 11 16 14 12 13 12 10 11 13 14 15 17 16 17 18 18 16 16 16 17 16 16 15 14 15 17 20 21 20 17 14
Wind_Direction
173 172 170 167 168 169 170 170 169 167 163 162 159 157 154 153 154 147 143 141 139 140 141 142 141 138 131 126 123 128 136 130 132 132 130 132 123 113 105 115 127 141 146 145 141 137 141 143 142 141 136 128 126 143 164 170 154 231 283 310 335 350
175 173 171 170 171 171 172 171 169 167 165 164 161 159 156 155 154 149 148 146 143 143 143 142 139 138 128 119 120 127 132 130 134 131 130 136 140 138 130 134 145 154 156 152 143 134 135 139 144 143 137 130 125 138 151 151 206 243 279 314 342 358
177 174 174 173 173 173 174 172 169 169 167 165 162 159 157 158 157 154 153 146 142 144 145 139 132 127 111 106 119 126 125 124 131 130 131 138 150 159 150 143 140 148 155 151 140 133 135 139 146 148 143 136 130 137 147 179 226 242 283 328 353 9
180 178 178 177 176 176 176 172 170 170 168 165 160 156 159 162 159 158 152 145 147 149 143 127 119 115 95 104 129 134 127 116 123 125 127 133 151 163 155 140 128 136 142 138 133 127 133 139 146 153 158 151 139 148 167 203 228 251 290 335 357 6
184 183 183 181 179 180 179 173 169 168 167 163 156 157 164 162 158 159 154 156 162 149 134 120 125 129 117 142 155 161 139 123 123 123 125 125 135 145 138 126 118 122 126 127 125 122 125 132 144 154 160 151 142 162 184 206 237 256 281 310 329 344
188 187 187 186 184 184 181 174 168 165 162 157 154 160 165 161 159 163 162 167 165 144 130 136 151 147 150 171 170 190 158 131 125 124 130 124 121 128 124 123 121 119 123 123 119 122 124 123 135 146 149 149 153 177 194 213 245 262 275 304 322 337
193 192 191 190 189 186 181 174 167 160 156 155 158 163 162 161 165 166 163 164 158 144 139 155 171 189 195 183 181 205 177 132 133 134 136 131 129 131 124 127 130 123 123 124 125 135 137 134 151 159 166 178 181 188 195 213 233 245 260 312 333 341
197 197 196 191 191 187 174 166 164 158 154 157 160 161 158 161 167 164 163 160 158 157 165 185 204 213 204 188 191 212 195 138 146 144 134 133 136 140 136 137 138 131 128 129 136 142 149 180 190 185 187 195 193 191 195 206 214 222 242 296 334 342
198 200 199 192 191 182 165 162 164 155 151 155 156 157 155 158 163 166 170 160 162 172 184 207 211 215 210 193 189 200 219 221 189 159 150 151 140 141 146 148 146 143 144 142 143 145 183 210 195 185 192 195 193 195 201 204 209 221 233 246 271 353
200 203 203 195 188 177 169 170 160 146 147 152 151 153 150 156 163 169 181 173 179 195 205 222 217 218 216 202 201 219 239 233 211 186 172 180 163 144 152 158 156 154 152 151 150 155 199 213 189 185 194 190 194 202 207 209 213 216 204 174 139 91
202 201 200 199 189 177 174 173 152 138 144 146 141 146 151 165 171 177 195 197 211 226 242 253 223 211 207 195 204 221 242 223 201 199 189 192 190 159 158 166 168 172 165 163 163 169 198 197 175 185 193 193 204 209 209 211 212 207 198 164 115 92
208 199 195 197 185 173 169 165 148 139 145 145 142 151 159 172 180 193 208 204 220 237 250 258 226 211 205 195 199 211 223 199 188 197 190 190 195 181 181 185 178 179 180 174 173 179 192 187 171 177 192 203 209 213 212 211 213 206 202 155 112 96
205 195 191 187 171 164 164 158 149 146 149 151 157 162 165 177 187 200 208 204 221 238 244 254 249 229 217 215 209 209 223 212 189 193 187 191 200 199 203 198 186 184 184 179 180 176 178 187 189 183 192 202 197 205 212 213 213 204 189 149 123 111
189 183 179 165 156 160 159 156 151 148 150 157 166 164 161 178 191 193 199 208 220 234 242 239 237 230 224 227 214 209 236 239 217 196 192 199 202 198 197 197 195 198 190 189 192 169 169 193 198 188 184 183 180 183 193 197 192 197 195 149 134 122
171 169 165 149 152 159 155 157 154 150 156 163 166 160 162 181 194 193 196 207 216 231 246 232 223 225 232 234 221 215 226 227 222 203 197 200 200 194 194 202 186 180 184 192 187 161 170 198 187 180 179 169 169 166 168 173 170 186 165 106 125 109
146 151 154 143 147 155 153 157 157 156 161 161 155 154 166 180 189 197 198 207 222 237 248 243 236 233 238 244 233 219 216 226 223 208 202 197 198 194 187 188 157 162 175 178 175 166 172 193 178 172 176 162 161 160 161 165 163 166 112 112 129 100
134 141 147 141 143 151 150 151 153 151 149 144 141 145 152 167 184 202 211 215 222 234 245 251 249 240 240 244 238 224 219 233 223 211 210 197 197 192 178 180 166 163 171 169 172 178 175 178 174 167 163 154 152 157 166 167 151 135 115 127 125 96
132 137 144 146 145 146 145 143 141 138 135 133 136 137 128 146 184 195 200 199 207 222 238 245 239 236 240 240 236 227 217 222 218 212 211 201 195 189 178 179 178 169 169 166 170 182 179 172 173 167 159 153 154 161 170 164 145 134 113 99 94 85
135 139 144 149 143 138 141 141 136 134 131 127 129 126 113 118 133 145 166 177 200 210 216 224 216 225 238 231 224 226 215 212 219 211 205 199 190 185 180 178 180 172 167 167 168 175 174 169 173 171 164 157 156 162 166 156 148 130 92 74 63 74
140 143 144 143 136 135 141 138 134 130 123 120 121 120 117 118 124 130 142 167 191 184 182 210 214 216 228 223 214 215 207 210 220 205 193 192 186 180 181 183 182 175 172 171 169 170 168 171 177 170 165 162 158 163 164 150 139 134 115 86 44 50
143 145 144 140 133 132 133 129 127 124 121 121 121 121 118 108 103 108 121 136 148 148 151 182 200 198 203 208 204 198 197 209 214 196 185 187 188 181 179 187 187 181 181 177 172 175 172 175 180 170 165 164 159 161 159 138 125 123 102 71 42 40
141 142 144 141 135 132 131 127 125 124 124 128 128 124 115 105 101 103 111 117 123 133 138 160 173 174 188 197 196 191 193 201 195 188 189 191 189 182 180 192 192 186 188 186 184 187 182 178 180 175 170 164 154 147 142 132 129 122 101 81 68 78
145 144 143 142 140 140 138 132 128 125 126 131 135 133 119 117 122 110 104 107 113 117 117 137 140 135 152 148 168 184 184 188 188 190 199 198 188 179 182 196 198 193 194 193 195 194 187 185 183 177 171 165 157 147 143 140 138 125 112 115 113 95
148 146 144 145 145 146 144 135 128 127 128 131 138 143 111 101 108 105 101 102 101 103 105 112 110 110 122 119 137 165 163 167 176 188 195 192 186 177 180 192 193 193 199 201 201 193 186 188 189 186 178 168 163 159 154 146 137 126 118 127 143 136
152 150 148 146 145 149 148 138 133 136 142 145 144 137 99 94 98 99 102 101 98 100 101 102 102 103 114 117 122 136 145 159 170 185 189 186 185 178 178 187 189 193 202 206 204 194 188 189 191 196 192 175 164 171 165 147 135 131 135 137 140 151
158 157 151 146 148 151 151 145 142 145 157 164 151 130 113 112 113 102 93 90 91 93 94 100 100 96 106 115 118 126 131 147 168 181 183 186 186 182 185 191 197 201 204 206 202 194 192 194 193 195 197 186 172 178 168 151 136 128 137 146 145 145
164 162 156 154 156 158 160 157 152 154 159 157 147 134 126 131 134 119 87 80 82 80 77 92 105 104 113 118 120 123 118 116 131 155 177 187 184 188 198 200 206 208 204 204 198 191 192 195 194 189 189 189 179 171 167 158 147 138 135 136 139 138
165 164 163 162 162 167 172 164 156 157 151 146 146 142 143 150 156 153 113 99 105 101 80 80 98 100 101 111 118 118 118 117 118 126 151 174 176 177 188 193 198 198 198 200 190 187 193 195 195 189 183 185 182 169 169 164 158 152 142 134 133 136
166 165 164 164 166 171 171 162 158 158 152 151 157 157 162 168 165 157 132 123 137 140 119 106 108 105 99 114 128 128 135 142 140 141 139 152 169 166 172 185 193 194 193 191 179 180 188 186 188 191 189 187 181 172 169 166 163 163 155 146 147 152
169 165 164 166 169 169 166 164 162 160 159 166 174 171 173 176 163 153 144 147 164 173 173 145 133 135 131 126 132 142 160 161 139 151 150 156 178 180 180 183 192 201 195 186 180 179 182 176 171 182 190 188 181 172 166 165 166 168 165 158 156 156
174 168 168 169 167 163 164 168 167 164 168 171 170 163 161 166 165 161 160 167 182 193 190 170 160 160 162 167 131 142 164 168 143 150 165 178 195 195 195 195 198 198 189 187 188 182 182 176 161 168 177 178 177 172 166 165 166 168 163 151 144 140
178 173 172 169 164 163 166 172 172 168 172 171 160 151 151 156 157 159 168 177 190 193 183 180 181 181 188 197 162 143 157 170 164 160 175 199 204 187 188 192 191 183 180 185 182 179 179 165 147 153 161 160 162 167 168 166 165 168 170 153 138 136
182 176 174 171 166 168 170 174 176 168 167 166 157 151 149 145 138 143 157 166 173 182 193 201 187 173 172 166 165 168 162 169 181 180 189 204 187 175 175 172 170 171 175 173 165 162 157 142 135 137 142 144 144 146 154 168 169 170 174 162 138 131
185 179 178 175 169 170 172 173 171 162 161 163 157 152 149 140 135 143 147 150 163 182 196 196 167 139 150 157 166 182 182 172 176 171 159 153 159 166 167 158 157 160 158 151 147 145 143 139 136 134 138 141 139 134 132 159 171 168 171 167 145 131
187 184 182 176 169 169 173 172 166 162 164 164 157 151 150 151 151 150 147 151 170 191 190 192 193 158 159 167 175 186 193 169 150 139 127 127 142 152 154 151 150 150 148 148 149 148 145 144 142 143 150 150 148 145 134 143 160 164 172 172 156 138
189 188 183 175 170 172 174 172 168 167 168 166 161 153 152 158 157 149 149 160 181 198 199 206 223 195 180 185 189 196 196 155 143 139 134 139 143 143 148 149 147 149 150 151 154 153 150 149 147 152 160 162 163 156 138 138 144 142 152 161 157 154
190 188 180 172 173 177 179 178 175 169 167 168 165 157 154 159 159 155 158 174 197 208 215 223 236 219 197 195 193 190 177 153 147 146 145 150 154 153 154 151 150 151 151 152 156 157 158 157 156 160 165 169 168 155 137 133 134 131 135 144 151 158